#timestamp,LO_Frequency,Hit,Temp,Hum 
1479848415.7,286047636.5,N,0.0,0.0
1479848435.6,286047636.9,N,0.0,0.0
1479848455.4,286047638.7,N,0.0,0.0
1479848475.2,286047638.6,N,0.0,0.0
1479848495.1,286047639.3,N,0.0,0.0
1479848496.0,286047639.3,N,0.0,0.0
1479848515.8,286047637.2,N,0.0,0.0
1479848535.7,286047637.4,N,0.0,0.0
1479848555.5,286047636.7,N,0.0,0.0
1479848575.3,286047638.2,N,0.0,0.0
1479848595.2,286047638.3,N,0.0,0.0
1479848615.0,286047640.4,N,0.0,0.0
1479848615.9,286047640.4,N,0.0,0.0
1479848635.8,286047640.3,N,0.0,0.0
1479848655.6,286047642.4,N,0.0,0.0
1479848675.4,286047640.3,N,0.0,0.0
1479848695.3,286047640.7,N,0.0,0.0
1479848715.1,286047642.1,N,0.0,0.0
1479848735.8,286047643.2,N,0.0,0.0
1479848755.7,286047643.3,N,0.0,0.0
1479848775.5,286047643.5,N,0.0,0.0
1479848795.4,286047643.6,N,0.0,0.0
1479848815.2,286047643.4,N,0.0,0.0
1479848835.0,286047645.6,N,0.0,0.0
1479848835.9,286047645.6,N,0.0,0.0
1479848855.8,286047643.9,N,0.0,0.0
1479848875.6,286047642.7,N,0.0,0.0
1479848895.4,286047644.4,N,0.0,0.0
1479848915.3,286047643.5,N,0.0,0.0
1479848935.1,286047644.4,N,0.0,0.0
1479848955.9,286047645.6,N,0.0,0.0
1479848975.7,286047643.7,N,0.0,0.0
1479848995.5,286047645.4,N,0.0,0.0
1479849015.4,286047644.7,N,0.0,0.0
1479849035.2,286047646.0,N,0.0,0.0
1479849055.1,286047644.7,N,0.0,0.0
1479849056.0,286047644.7,N,0.0,0.0
1479849075.8,286047647.1,N,0.0,0.0
1479849095.6,286047644.6,N,0.0,0.0
1479849115.5,286047647.2,N,0.0,0.0
1479849135.3,286047646.9,N,0.0,0.0
1479849155.1,286047648.7,N,0.0,0.0
1479849175.9,286047648.1,N,0.0,0.0
1479849195.7,286047648.6,N,0.0,0.0
1479849215.6,286047646.4,N,0.0,0.0
1479849235.4,286047648.7,N,0.0,0.0
1479849255.2,286047648.1,N,0.0,0.0
1479849275.1,286047650.7,N,0.0,0.0
1479849276.0,286047650.7,N,0.0,0.0
1479849295.8,286047649.9,N,0.0,0.0
1479849315.7,286047650.5,N,0.0,0.0
1479849335.5,286047650.8,N,0.0,0.0
1479849355.3,286047648.2,N,0.0,0.0
1479849375.2,286047650.5,N,0.0,0.0
1479849395.0,286047649.5,N,0.0,0.0
1479849395.9,286047649.5,N,0.0,0.0
1479849415.7,286047652.3,N,0.0,0.0
1479849435.6,286047652.0,N,0.0,0.0
1479849455.4,286047651.2,N,0.0,0.0
1479849475.3,286047651.6,N,0.0,0.0
1479849495.1,286047651.5,N,0.0,0.0
1479849515.8,286047653.6,N,0.0,0.0
1479849535.7,286047651.5,N,0.0,0.0
1479849555.5,286047653.7,N,0.0,0.0
1479849575.4,286047651.5,N,0.0,0.0
1479849595.2,286047652.1,N,0.0,0.0
1479849615.0,286047651.0,N,0.0,0.0
1479849615.9,286047651.0,N,0.0,0.0
1479849635.8,286047653.6,N,0.0,0.0
1479849655.6,286047653.3,N,0.0,0.0
1479849675.4,286047654.3,N,0.0,0.0
1479849695.3,286047654.5,N,0.0,0.0
1479849715.1,286047655.2,N,0.0,0.0
1479849735.9,286047652.9,N,0.0,0.0
1479849755.7,286047652.6,N,0.0,0.0
1479849775.5,286047654.5,N,0.0,0.0
1479849795.4,286047654.9,N,0.0,0.0
1479849815.2,286047654.2,N,0.0,0.0
1479849835.0,286047656.5,N,0.0,0.0
1479849836.0,286047656.5,N,0.0,0.0
1479849855.8,286047656.6,N,0.0,0.0
1479849875.6,286047657.0,N,0.0,0.0
1479849895.5,286047657.0,N,0.0,0.0
1479849915.3,286047655.7,N,0.0,0.0
1479849935.1,286047655.8,N,0.0,0.0
1479849955.9,286047658.6,N,0.0,0.0
1479849975.7,286047658.5,N,0.0,0.0
1479849995.6,286047658.6,N,0.0,0.0
1479850015.4,286047658.6,N,0.0,0.0
1479850035.2,286047657.5,N,0.0,0.0
1479850055.1,286047657.6,N,0.0,0.0
1479850056.0,286047657.6,N,0.0,0.0
1479850075.8,286047657.8,N,0.0,0.0
1479850095.7,286047658.8,N,0.0,0.0
1479850115.5,286047655.8,N,0.0,0.0
1479850135.3,286047658.5,N,0.0,0.0
1479850155.2,286047658.6,N,0.0,0.0
1479850175.0,286047657.7,N,0.0,0.0
1479850175.9,286047657.7,N,0.0,0.0
1479850195.7,286047657.7,N,0.0,0.0
1479850215.6,286047657.6,N,0.0,0.0
1479850235.4,286047657.3,N,0.0,0.0
1479850255.3,286047659.5,N,0.0,0.0
1479850275.1,286047660.2,N,0.0,0.0
1479850295.8,286047660.1,N,0.0,0.0
1479850315.7,286047660.0,N,0.0,0.0
1479850335.5,286047659.1,N,0.0,0.0
1479850355.4,286047659.5,N,0.0,0.0
1479850375.2,286047659.3,N,0.0,0.0
1479850395.0,286047661.5,N,0.0,0.0
1479850395.9,286047661.5,N,0.0,0.0
1479850415.8,286047661.2,N,0.0,0.0
1479850435.6,286047661.7,N,0.0,0.0
1479850455.4,286047657.4,N,0.0,0.0
1479850475.3,286047657.8,N,0.0,0.0
1479850495.1,286047661.3,N,0.0,0.0
1479850515.9,286047663.4,N,0.0,0.0
1479850535.7,286047662.8,N,0.0,0.0
1479850555.5,286047662.2,N,0.0,0.0
1479850575.4,286047662.2,N,0.0,0.0
1479850595.2,286047661.7,N,0.0,0.0
1479850615.0,286047661.4,N,0.0,0.0
1479850616.0,286047661.4,N,0.0,0.0
1479850635.8,286047663.1,N,0.0,0.0
1479850655.6,286047665.2,N,0.0,0.0
1479850675.5,286047664.3,N,0.0,0.0
1479850695.3,286047664.8,N,0.0,0.0
1479850715.1,286047664.0,N,0.0,0.0
1479850735.9,286047664.0,N,0.0,0.0
1479850755.7,286047664.4,N,0.0,0.0
1479850775.6,286047663.7,N,0.0,0.0
1479850795.4,286047665.6,N,0.0,0.0
1479850815.2,286047667.9,N,0.0,0.0
1479850835.1,286047667.7,N,0.0,0.0
1479850836.0,286047667.7,N,0.0,0.0
1479850855.8,286047667.2,N,0.0,0.0
1479850875.7,286047667.5,N,0.0,0.0
1479850895.5,286047667.5,N,0.0,0.0
1479850915.3,286047667.3,N,0.0,0.0
1479850935.2,286047669.8,N,0.0,0.0
1479850955.9,286047669.4,N,0.0,0.0
1479850975.7,286047671.6,N,0.0,0.0
1479850995.6,286047670.6,N,0.0,0.0
1479851015.4,286047671.3,N,0.0,0.0
1479851035.3,286047671.4,N,0.0,0.0
1479851055.1,286047670.2,N,0.0,0.0
1479851056.0,286047670.2,N,0.0,0.0
1479851075.8,286047673.0,N,0.0,0.0
1479851095.7,286047672.3,N,0.0,0.0
1479851115.5,286047672.5,N,0.0,0.0
1479851135.3,286047674.4,N,0.0,0.0
1479851155.2,286047674.6,N,0.0,0.0
1479851175.0,286047674.0,N,0.0,0.0
1479851175.9,286047674.0,N,0.0,0.0
1479851195.8,286047674.2,N,0.0,0.0
1479851215.6,286047673.5,N,0.0,0.0
1479851235.4,286047673.3,N,0.0,0.0
1479851255.3,286047673.9,N,0.0,0.0
1479851275.1,286047673.8,N,0.0,0.0
1479851295.9,286047673.3,N,0.0,0.0
1479851315.7,286047673.3,N,0.0,0.0
1479851335.5,286047676.1,N,0.0,0.0
1479851355.4,286047675.2,N,0.0,0.0
1479851375.2,286047675.5,N,0.0,0.0
1479851395.0,286047675.0,N,0.0,0.0
1479851395.9,286047675.0,N,0.0,0.0
1479851415.8,286047675.1,N,0.0,0.0
1479851435.6,286047674.9,N,0.0,0.0
1479851455.5,286047675.0,N,0.0,0.0
1479851475.3,286047677.9,N,0.0,0.0
1479851495.1,286047677.8,N,0.0,0.0
1479851515.9,286047677.2,N,0.0,0.0
1479851535.7,286047677.7,N,0.0,0.0
1479851555.5,286047677.0,N,0.0,0.0
1479851575.4,286047677.0,N,0.0,0.0
1479851595.2,286047676.9,N,0.0,0.0
1479851615.1,286047676.7,N,0.0,0.0
1479851616.0,286047676.7,N,0.0,0.0
1479851635.8,286047676.7,N,0.0,0.0
1479851655.6,286047676.7,N,0.0,0.0
1479851675.5,286047677.2,N,0.0,0.0
1479851695.3,286047676.9,N,0.0,0.0
1479851715.2,286047679.1,N,0.0,0.0
1479851735.9,286047678.9,N,0.0,0.0
1479851755.7,286047678.7,N,0.0,0.0
1479851775.6,286047678.3,N,0.0,0.0
1479851795.4,286047678.9,N,0.0,0.0
1479851815.2,286047678.9,N,0.0,0.0
1479851835.1,286047678.8,N,0.0,0.0
1479851836.0,286047678.8,N,0.0,0.0
1479851855.8,286047678.6,N,0.0,0.0
1479851875.7,286047680.9,N,0.0,0.0
1479851895.5,286047680.4,N,0.0,0.0
1479851915.3,286047681.0,N,0.0,0.0
1479851935.2,286047680.9,N,0.0,0.0
1479851955.0,286047681.0,N,0.0,0.0
1479851955.9,286047681.0,N,0.0,0.0
1479851975.8,286047678.4,N,0.0,0.0
1479851995.6,286047678.3,N,0.0,0.0
